Weather History for Novato, CA

Change the Weather History Date:

Wednesday, June 5, 2013

  Actual Average (KAPC) Record (KAPC)
Temperature  
Mean Temperature 62 °F 63 °F  
Max Temperature 73 °F 77 °F 95 °F (2002)
Min Temperature 51 °F 48 °F 43 °F (2001)
Degree Days  
Heating Degree Days 3    
Month to date heating degree days  
Since 1 June heating degree days  
Since 1 July heating degree days  
Cooling Degree Days 0    
Month to date cooling degree days  
Year to date cooling degree days  
Since 1 June cooling degree days  
Growing Degree Days 12 (Base 50)    
Moisture  
Dew Point 53 °F    
Average Humidity 82    
Maximum Humidity 100    
Minimum Humidity 50    
Precipitation  
Precipitation 0.00 in - 0.56 in (1953)
Month to date precipitation  
Year to date precipitation  
Since 1 July precipitation  
Sea Level Pressure  
Sea Level Pressure 29.97 in    
Wind  
Wind Speed 5 mph (West)    
Max Wind Speed 17 mph    
Max Gust Speed 18 mph    
Visibility 10 miles    
Events      
T = Trace of Precipitation, MM = Missing Value Source: NWS Daily Summary

Daily Weather History Graph

Daily Weather History Graph

Search for Another Location

Airport:

Trip Planner

Search our weather history database for the weather conditions in past years. The results will help you decide how hot, cold, wet, or windy it might be!

Date:

Astronomy

Jun. 05, 2013 Rise Set
Actual Time 5:47 AM PDT 8:30 PM PDT
Civil Twilight 5:16 AM PDT 9:01 PM PDT
Nautical Twilight 4:37 AM PDT 9:40 PM PDT
Astronomical Twilight 3:53 AM PDT 10:24 PM PDT
Moon 3:52 AM PDT (6/5) 6:03 PM PDT (6/5)
Length of Visible Light 15h 45m
Length of Day
14h 42m
Waning Crescent, 7% of the Moon is Illuminated
Jun 5
Waning Crescent
Jun 8
New
Jun 16
First Quarter
Jun 23
Full
Jun 29
Last Quarter

Hourly Weather History & Observations

Time (PDT) Temp. Dew Point Humidity Pressure Visibility Wind Dir Wind Speed Gust Speed Precip Events Conditions
12:15 AM 55.4 °F 50.0 °F 82% 29.99 in 10.0 mi WNW 3.5 mph - N/A   Unknown
12:35 AM 55.4 °F 50.0 °F 82% 29.99 in 10.0 mi Calm Calm - N/A   Unknown
12:55 AM 55.4 °F 50.0 °F 82% 29.99 in 10.0 mi WSW 3.5 mph - N/A   Unknown
1:15 AM 55.4 °F 50.0 °F 82% 29.99 in 10.0 mi WNW 3.5 mph - N/A   Overcast
1:35 AM 53.6 °F 50.0 °F 88% 29.99 in 10.0 mi West 6.9 mph - N/A   Overcast
1:55 AM 53.6 °F 51.8 °F 94% 29.99 in 10.0 mi Calm Calm - N/A   Overcast
2:15 AM 53.6 °F 51.8 °F 94% 29.98 in 10.0 mi NNW 5.8 mph - N/A   Overcast
2:35 AM 53.6 °F 51.8 °F 94% 29.99 in 10.0 mi WNW 4.6 mph - N/A   Overcast
2:55 AM 53.6 °F 51.8 °F 94% 29.99 in 10.0 mi Calm Calm - N/A   Unknown
3:15 AM 53.6 °F 53.6 °F 100% 29.99 in 10.0 mi WNW 4.6 mph - N/A   Unknown
3:35 AM 53.6 °F 53.6 °F 100% 29.98 in 10.0 mi Calm Calm - N/A   Unknown
3:55 AM 53.6 °F 53.6 °F 100% 29.98 in 10.0 mi Calm Calm - N/A   Unknown
4:15 AM 53.6 °F 53.6 °F 100% 29.98 in 10.0 mi NNW 5.8 mph - N/A   Unknown
4:35 AM 53.6 °F 53.6 °F 100% 29.98 in 10.0 mi NNW 5.8 mph - N/A   Unknown
4:55 AM 53.6 °F 53.6 °F 100% 29.98 in 10.0 mi NNW 4.6 mph - N/A   Unknown
5:15 AM 53.6 °F 53.6 °F 100% 29.98 in 10.0 mi WNW 3.5 mph - N/A   Unknown
5:35 AM 53.6 °F 53.6 °F 100% 29.99 in 10.0 mi Calm Calm - N/A   Unknown
5:55 AM 53.6 °F 53.6 °F 100% 29.99 in 10.0 mi Calm Calm - N/A   Overcast
6:15 AM 53.6 °F 53.6 °F 100% 29.99 in 10.0 mi Calm Calm - N/A   Overcast
6:35 AM 53.6 °F 53.6 °F 100% 30.00 in 10.0 mi SW 4.6 mph - N/A   Overcast
6:55 AM 53.6 °F 53.6 °F 100% 30.00 in 10.0 mi SW 5.8 mph - N/A   Overcast
7:15 AM 53.6 °F 53.6 °F 100% 30.00 in 10.0 mi Calm Calm - N/A   Overcast
7:35 AM 53.6 °F 53.6 °F 100% 30.00 in 10.0 mi SW 5.8 mph - N/A   Overcast
7:55 AM 53.6 °F 53.6 °F 100% 30.00 in 10.0 mi SW 8.1 mph - N/A   Overcast
8:15 AM 53.6 °F 53.6 °F 100% 30.01 in 10.0 mi SW 9.2 mph - N/A   Overcast
8:35 AM 53.6 °F 53.6 °F 100% 30.02 in 10.0 mi SW 9.2 mph - N/A   Overcast
8:55 AM 55.4 °F 53.6 °F 94% 30.02 in 10.0 mi WSW 5.8 mph - N/A   Overcast
9:15 AM 55.4 °F 53.6 °F 94% 30.02 in 10.0 mi WSW 5.8 mph - N/A   Overcast
9:35 AM 55.4 °F 53.6 °F 94% 30.01 in 10.0 mi WSW 6.9 mph - N/A   Overcast
9:55 AM 57.2 °F 53.6 °F 88% 30.02 in 10.0 mi WSW 8.1 mph - N/A   Overcast
10:15 AM 57.2 °F 53.6 °F 88% 30.01 in 10.0 mi Calm Calm - N/A   Overcast
10:35 AM 59.0 °F 53.6 °F 82% 30.01 in 10.0 mi WSW 6.9 mph - N/A   Overcast
10:55 AM 59.0 °F 53.6 °F 82% 30.01 in 10.0 mi WSW 9.2 mph - N/A   Overcast
11:15 AM 62.6 °F 53.6 °F 72% 30.01 in 10.0 mi WSW 5.8 mph - N/A   Overcast
11:35 AM 62.6 °F 53.6 °F 72% 30.00 in 10.0 mi WSW 10.4 mph - N/A   Mostly Cloudy
11:55 AM 64.4 °F 53.6 °F 68% 30.00 in 10.0 mi SW 8.1 mph - N/A   Partly Cloudy
12:15 PM 64.4 °F 53.6 °F 68% 29.99 in 10.0 mi WSW 4.6 mph - N/A   Clear
12:35 PM 68.0 °F 53.6 °F 60% 29.98 in 10.0 mi NW 4.6 mph - N/A   Clear
12:55 PM 68.0 °F 53.6 °F 60% 29.98 in 10.0 mi ENE 3.5 mph - N/A   Clear
1:15 PM 69.8 °F 53.6 °F 56% 29.97 in 10.0 mi NNE 4.6 mph - N/A   Clear
1:35 PM 69.8 °F 53.6 °F 56% 29.96 in 10.0 mi SW 4.6 mph - N/A   Clear
1:55 PM 71.6 °F 53.6 °F 53% 29.96 in 10.0 mi NNE 4.6 mph - N/A   Clear
2:15 PM 73.4 °F 55.4 °F 53% 29.95 in 10.0 mi West 8.1 mph 17.3 mph N/A   Clear
2:35 PM 73.4 °F 55.4 °F 53% 29.95 in 10.0 mi West 10.4 mph - N/A   Clear
2:55 PM 73.4 °F 55.4 °F 53% 29.95 in 10.0 mi NNW 9.2 mph - N/A   Clear
3:15 PM 73.4 °F 53.6 °F 50% 29.95 in 10.0 mi NW 8.1 mph - N/A   Clear
3:35 PM 73.4 °F 53.6 °F 50% 29.94 in 10.0 mi WSW 12.7 mph 17.3 mph N/A   Clear
3:55 PM 71.6 °F 53.6 °F 53% 29.94 in 10.0 mi West 10.4 mph 18.4 mph N/A   Clear
4:15 PM 71.6 °F 53.6 °F 53% 29.93 in 10.0 mi WSW 13.8 mph - N/A   Clear
4:35 PM 71.6 °F 53.6 °F 53% 29.93 in 10.0 mi WSW 12.7 mph - N/A   Clear
4:55 PM 69.8 °F 53.6 °F 56% 29.93 in 10.0 mi SW 17.3 mph - N/A   Clear
5:15 PM 68.0 °F 53.6 °F 60% 29.93 in 10.0 mi WSW 12.7 mph - N/A   Clear
5:35 PM 68.0 °F 53.6 °F 60% 29.93 in 10.0 mi WSW 9.2 mph - N/A   Clear
5:55 PM 68.0 °F 53.6 °F 60% 29.93 in 10.0 mi NNW 9.2 mph - N/A   Clear
6:15 PM 66.2 °F 53.6 °F 64% 29.93 in 10.0 mi SW 4.6 mph - N/A   Clear
6:35 PM 66.2 °F 53.6 °F 64% 29.92 in 10.0 mi South 3.5 mph - N/A   Clear
6:55 PM 64.4 °F 53.6 °F 68% 29.93 in 10.0 mi WSW 6.9 mph - N/A   Clear
7:15 PM 64.4 °F 51.8 °F 64% 29.93 in 10.0 mi SW 4.6 mph - N/A   Clear
7:35 PM 62.6 °F 53.6 °F 72% 29.94 in 10.0 mi NNW 5.8 mph - N/A   Clear
7:55 PM 59.0 °F 53.6 °F 82% 29.94 in 10.0 mi North 5.8 mph - N/A   Clear
8:15 PM 57.2 °F 53.6 °F 88% 29.94 in 10.0 mi NNE 3.5 mph - N/A   Clear
8:35 PM 55.4 °F 53.6 °F 94% 29.95 in 10.0 mi North 6.9 mph - N/A   Clear
8:55 PM 55.4 °F 53.6 °F 94% 29.95 in 10.0 mi NNW 9.2 mph - N/A   Clear
9:15 PM 53.6 °F 53.6 °F 100% 29.95 in 10.0 mi NNW 9.2 mph - N/A   Clear
9:35 PM 53.6 °F 53.6 °F 100% 29.96 in 10.0 mi NNW 9.2 mph - N/A   Clear
9:55 PM 53.6 °F 53.6 °F 100% 29.97 in 10.0 mi NNW 9.2 mph - N/A   Clear
10:15 PM 53.6 °F 53.6 °F 100% 29.97 in 10.0 mi NNW 6.9 mph - N/A   Clear
10:35 PM 53.6 °F 53.6 °F 100% 29.97 in 10.0 mi NNW 5.8 mph - N/A   Clear
10:55 PM 51.8 °F 51.8 °F 100% 29.97 in 10.0 mi NNW 6.9 mph - N/A   Clear
11:15 PM 51.8 °F 51.8 °F 100% 29.97 in 10.0 mi NNW 8.1 mph - N/A   Clear
11:35 PM 51.8 °F 51.8 °F 100% 29.97 in 10.0 mi NNW 8.1 mph - N/A   Clear
11:55 PM 51.8 °F 51.8 °F 100% 29.97 in 10.0 mi Calm Calm - N/A   Partly Cloudy